ONEWEB-0088, 45457

Orbit data source: Space-Track

ONEWEB-0088, 45457 is a payload satellite owned by One Web (UK) in LEO that was launched on Sat, 21 Mar 2020 UTC via a SOYUZ-2-1B launch vehicle from the Tyuratam Missile And Space Complex (TTMTR). Payload-class satellites include a variety of spacecraft equipped with specific instruments for various scientific and technological missions. These include communications satellites like Starlink; space stations such as the ISS; scientific satellites like the Hubble; Earth observation satellites from companies like Planet Labs, Umbra, and HawkEye 360; GPS; miniature CubeSats for education and research; and military/defense satellites.

Loading next visibility...
Identifier
45457, 2020-020AK
Orbit
LEO
Last TLE update
8 hours ago
Origin
Manufacturer
One Web
Mission
Operational Commercial Communications
Bus & Motor
ARROW, Unknown motor
Mass
148 kg wet, ~140 kg dry
Launch date (UTC)
2020-03-21 (5 years ago)
Launch vehicle
SOYUZ-2-1B
Launch site
Tyuratam Missile And Space Complex (TTMTR)
Object type
Payload
Rocket body
Debris
Shape & HBR
Trap Box + 2 Pan, 5 m
Radar Cross Section
2.957 m², Large (>1 m²)

Expand to show TLE details & history

TLE from 8 hours ago
0 ONEWEB-0088
1 45457U 20020AK  25182.77496222 -.00000501  00000-0 -14500-2 0  9996
2 45457  87.8834  90.8437 0001823  78.7891 281.3442 13.11417496256622
Epoch: 2025-07-01T18:35Z
TLE epoch observation values (Epoch: 2025-07-01T18:35:56.735Z)
Latitude
-0.00002°
Longitude
-108.20828°
Altitude
1,220.297 km
Speed
7.244 km/s
True Right ascension
06h 03m 22s
True Declination
0° 00' 00"
Sunlit
Object was in daylight at epoch
Visualization orbit readout
Latitude
37.17212°
Longitude
70.12706°
Altitude
1,222.203 km
Speed
7.247 km/s
Apparent Right ascension
21h 21m 28s
Apparent Declination
5° 36' 23"
Sunlit
Object is in daylight
Visualization observer readout
Local Sidereal Time
14:20:04
Azimuth
75.738° E
Elevation
-8.011°
Doppler factor
1
Orbital elements
Apogee altitude
1,216.183 km
Perigee altitude
1,213.415 km
Semi-major axis
7,592.936 km
Eccentricity
0.00018
Inclination
87.8834°
RAAN
90.8437°
Arg. of periapsis
78.7891°
True anomaly
Unknown
Mean anomaly
281.3442°
Eccentric anomaly
Unknown
Mean motion
3.28041 °/min
Orbital period
109.74 mins
BSTAR
-0.00145
Loading maneuver chart data...
Loading SW <> Apogee altitude chart data...
Loading historical data...
Loading historical data...
Loading historical data...
Loading historical data...
Loading historical data...
Loading historical data...
Loading historical data...

ONEWEB-0088 Visibility forecast

Observer location: undefined°, undefined°

Span
Click to sort rows by Start time (UTC) header in descending order
Start Az.
Max El. time (UTC)
Max El. Az.
Max El.
End time (UTC)
End Az.
8 mins2025-07-02 04:22:58.205Z37.768° NE2025-07-02 04:26:58.205Z71.847° E15.459°2025-07-02 04:30:58.205Z106.236° ESE
13 mins2025-07-02 06:11:58.205Z358.117° N2025-07-02 06:17:58.205Z240.017° WSW44.887°2025-07-02 06:24:58.205Z183.763° SSW
4 mins2025-07-02 08:04:58.205Z303.458° NW2025-07-02 08:06:58.205Z285.799° WNW13.57°2025-07-02 08:08:58.205Z268.728° W
8 mins2025-07-02 16:43:58.205Z104.423° ESE2025-07-02 16:46:58.205Z77.31° E17.324°2025-07-02 16:51:58.205Z33.737° NE
12 mins2025-07-02 18:30:58.205Z186.573° SSW2025-07-02 18:35:58.205Z237.327° WSW44.036°2025-07-02 18:42:58.205Z357.225° N
4 mins2025-07-02 20:25:58.205Z277.566° WNW2025-07-02 20:27:58.205Z294.36° NW11.775°2025-07-02 20:29:58.205Z310.621° NW
|